Powrót do katalogu

SOLRAD 1

GREB

AktywnyNaukaLEO
NORAD 46·PAYLOAD·🇺🇸 United States

Wystrzelony Jun 22, 1960 z Cape Canaveral Space Force Station

Loading…

Następne Przeloty (najbliższe 24 godziny)

TLE

ŚwieżeSource: Space-Track

Epoka: Sep 9, 2026, 07:51 UTC

1 00046U 60007B   26252.32713429  .00000700  00000-0  14536-3 0  9990
2 00046  66.6903 358.8172 0200602 231.4603 126.8382 14.54971265469244

Śledź SOLRAD 1 w czasie rzeczywistym z AllMySat

Download on the App Store